This is the latest recevied weather packets stored in our database for station/object KC8YYF. If no packets are shown the sender has not sent any weather packets the latest 10 day(s).
| Time | Temp. | Humidity | Pressure | Rain* | Wind** | Luminosity | Snow |
|---|---|---|---|---|---|---|---|
| 1777868145 | 8.89° C | 76% | 1014 hPa | 0 mm | - | 0 W/m² | - |
| 1777867842 | 8.89° C | 76% | 1014.2 hPa | 0 mm | - | 0 W/m² | - |
| 1777867539 | 8.89° C | 76% | 1014.3 hPa | 0 mm | - | 0 W/m² | - |
| 1777867236 | 8.89° C | 78% | 1014.2 hPa | 0 mm | - | 0 W/m² | - |
| 1777866932 | 8.89° C | 76% | 1014.4 hPa | 0 mm | - | 0 W/m² | - |
| 1777866629 | 8.89° C | 75% | 1014.3 hPa | 0 mm | - | 0 W/m² | - |
| 1777866327 | 9.44° C | 73% | 1014.4 hPa | 0 mm | - | 0 W/m² | - |
| 1777866023 | 9.44° C | 77% | 1014.2 hPa | 0 mm | - | 0 W/m² | - |
| 1777865721 | 9.44° C | 75% | 1014.6 hPa | 0 mm | - | 0 W/m² | - |
| 1777865419 | 10° C | 75% | 1014.2 hPa | 0 mm | - | 0 W/m² | - |
| 1777865115 | 10° C | 74% | 1014.4 hPa | 0 mm | - | 0 W/m² | - |
| 1777864812 | 10° C | 71% | 1014.4 hPa | 0 mm | - | 0 W/m² | - |
| 1777864509 | 10° C | 72% | 1014.4 hPa | 0 mm | - | 0 W/m² | - |
| 1777864205 | 10° C | 73% | 1014.3 hPa | 0 mm | - | 0 W/m² | - |
| 1777863903 | 10° C | 70% | 1014.4 hPa | 0 mm | - | 0 W/m² | - |
| 1777863598 | 10° C | 70% | 1014.5 hPa | 0 mm | - | 0 W/m² | - |
| 1777863296 | 10.56° C | 72% | 1014.6 hPa | 0 mm | - | 0 W/m² | - |
| 1777862992 | 10.56° C | 71% | 1014.5 hPa | 0 mm | - | 0 W/m² | - |
| 1777862689 | 10.56° C | 68% | 1014.7 hPa | 0 mm | - | 0 W/m² | - |
| 1777862386 | 10.56° C | 71% | 1014.6 hPa | 0 mm | - | 0 W/m² | - |
| 1777862083 | 10.56° C | 67% | 1014.7 hPa | 0 mm | - | 0 W/m² | - |
| 1777861778 | 10.56° C | 68% | 1014.4 hPa | 0 mm | - | 0 W/m² | - |
| 1777861475 | 10.56° C | 65% | 1014.7 hPa | 0 mm | - | 0 W/m² | - |
| 1777861172 | 11.11° C | 65% | 1014.7 hPa | 0 mm | - | 0 W/m² | - |
| 1777860869 | 11.11° C | 60% | 1014.7 hPa | 0 mm | - | 0 W/m² | - |
* Rain latest hour (hover to see other rain measurements)
** Current wind speed in m/s (hover to see current wind gust speed)